Regional Weather Roundup
Issued by NWS

Home | Current Version | Previous Version | Text Only | Print | Product List | Glossary On
Versions: 1 2 3 4 5 6 7 8 9 10 11 12 13 14 15 16 17 18 19 20 21 22 23 24 25 26 27 28 29 30 31 32 33 34 35 36 37 38 39 40 41 42 43 44 45 46 47 48 49 50
000
ASUS43 KDTX 030201
RWRMI
MICHIGAN HOURLY REGIONAL WEATHER ROUNDUP
NATIONAL WEATHER SERVICE DETROIT/PONTIAC MI
1000 PM EDT TUE SEP 02 2014

NOTE: "FAIR" INDICATES FEW OR NO CLOUDS BELOW 12,000 FEET WITH NO
SIGNIFICANT WEATHER AND/OR OBSTRUCTION TO VISIBILITY.

MIZ047>049-052>055-059>063-066>070-074>076-081>083-030300-
SOUTHEAST LOWER MICHIGAN

CITY           SKY/WX    TMP DP  RH WIND       PRES   REMARKS
ADRIAN         CLEAR     65  62  90 CALM      29.95R
ALMA           CLEAR     60  58  93 CALM      29.92R
ANN ARBOR      CLEAR     61  58  90 CALM      29.93R
BAD AXE        CLEAR     58  57  99 CALM      29.91S
CARO           CLEAR     60  59  96 CALM      29.91R
DETROIT CITY   CLEAR     69  61  75 CALM      29.93R
DETROIT        PTCLDY    68  62  81 S3        29.93R
FLINT          CLEAR     65  58  78 CALM      29.92R
GROSSE ILE     PTCLDY    66  64  94 CALM      29.92S
HILLSDALE      CLEAR     62  62 100 CALM      29.96R
HOWELL         CLEAR     64  60  87 SW3       29.94R

CITY           SKY/WX    TMP DP  RH WIND       PRES   REMARKS
JACKSON        CLEAR     63  59  87 CALM      29.94R
LAMBERTVILLE   PTCLDY    66  63  88 CALM      29.95R
LANSING        CLEAR     65  58  78 CALM      29.93R
LAPEER         FAIR      61  58  91 CALM      29.93R
MASON          CLEAR     62  59  91 CALM      29.94R
MONROE         PTCLDY    64  63  94 CALM      29.93R
MT. CLEMENS    CLEAR     64  58  79 S2        29.92R
PONTIAC        PTCLDY    67  60  78 CALM      29.93R
PORT HOPE        N/A     61  56  83 SW3       29.88S
PORT HURON     CLEAR     59  59 100 MISG      29.93R FOG
TRI CITIES     CLEAR     67  57  70 SW5       29.91R
TROY           CLEAR     70  58  66 CALM      29.95R
SAGINAW HB     CLEAR     64  57  77 CALM      29.90S
$$
MIZ043>046-050>051-056>058-064>065-071>073-077>080-030300-
SOUTHWEST LOWER MICHIGAN

CITY           SKY/WX    TMP DP  RH WIND       PRES   REMARKS
BATTLE CREEK   CLEAR     66  60  81 CALM      29.95R
BENTON HARBOR  CLEAR     66  63  90 CALM      29.93R
BIG RAPIDS     CLEAR     61  59  91 CALM      29.92R
COLDWATER      CLEAR     65  63  93 CALM      29.95R
FREMONT        FAIR      60  56  85 CALM      29.92R
HOLLAND        CLEAR     66  62  87 CALM      29.93R
GRAND RAPIDS   CLEAR     67  61  81 SW3       29.93R
IONIA          FAIR      66  58  76 SW3       29.92R
KALAMAZOO      CLEAR     65  60  84 CALM      29.94R
LUDINGTON      CLEAR     67  62  84 CALM      29.91R
MARSHALL       CLEAR     61  59  92 CALM      29.94R
MOUNT PLEASANT CLEAR     62  58  88 CALM      29.91R
MUSKEGON       CLEAR     65  61  87 S3        29.92R
SOUTH HAVEN    PTCLDY    66  64  94 CALM      29.93R
$$
MIZ016>042-030300-
NORTHERN LOWER MICHIGAN

CITY           SKY/WX    TMP DP  RH WIND       PRES   REMARKS
ALPENA         CLEAR     63  56  78 CALM      29.88R
BEAVER ISLAND  CLEAR     59  57  94 CALM      29.87S
BELLAIRE       CLEAR     60  57  91 CALM      29.88S
CADILLAC       CLEAR     57  57  98 SW3       29.92R
CHARLEVOIX     CLEAR     65  62  88 W5        29.90S
FRANKFORT      CLEAR     65  61  87 CALM      29.89R
GAYLORD        CLEAR     60  55  83 CALM      29.90R
GRAYLING       CLEAR     59  59 100 CALM      29.91S
HARBOR SPRINGS CLEAR     64  59  85 W5        29.88S
HOUGHTON LAKE  CLEAR     58  56  93 CALM      29.92R
MANISTEE       CLEAR     63  57  82 CALM      29.90S
OSCODA         CLEAR     62  59  91 CALM      29.88S
PELLSTON       CLEAR     63  58  83 W6        29.88R
ROGERS CITY    CLEAR     60  56  88 SW7       29.87S
TRAVERSE CITY  CLEAR     66  58  75 SW3       29.87S
$$
MIZ007>008-015-030300-
EASTERN UPPER MICHIGAN

CITY           SKY/WX    TMP DP  RH WIND       PRES   REMARKS
KINROSS        CLEAR     61  59  94 SW5       29.86R
MACKINAC ISLAN CLEAR     60  56  87 NW3       29.87R
NEWBERRY       CLEAR     55  55  97 SW7       29.86S
S. S. MARIE    CLEAR     57  55  93 W3        29.85R
$$
MIZ004>006-011>014-085-030300-
CENTRAL UPPER MICHIGAN

CITY           SKY/WX    TMP DP  RH WIND       PRES   REMARKS
MANISTIQUE     FOG       56  56  99 CALM      29.85S VSB 1/2
ESCANABA       CLEAR     57  54  88 W3        29.85R
MENOMINEE      CLEAR     64  57  77 W5        29.85S
SAWYER-GWINN   CLEAR     63  54  72 CALM      29.86R
$$
MIZ001>003-009>011-084-030300-
WESTERN UPPER MICHIGAN

CITY           SKY/WX    TMP DP  RH WIND       PRES   REMARKS
IRON MOUNTAIN  CLEAR     57  52  83 CALM      29.86R
HOUGHTON       CLOUDY    63  49  60 W24G33    29.84R
COPPER HARBOR    N/A     68  48  48 VRB7G20   29.80R
$$

ABBREVIATIONS USED IN REMARKS
   TC - TEMPERATURE IN CELSIUS
  WCI - WIND CHILL INDEX
   HX - HEAT INDEX
  VSB - VISIBILITY



USA.gov is the U.S. government's official web portal to all federal, state and local government web resources and services.